Погода в Мархе

Россия / Республика Саха (Якутия)     60°35′52″N   123°17′28″E
темп.,
°C
ветер,
м/с
пор.,
м/с
влажн.,
%
обл.,
%
осадки,
мм/ч
давл.,
гПа
погр.,
м
1 марта, пн
пн100:00−27з3996100 0.0 1033491
03:00−29з2598100 0.0 1033181
06:00−30зюз2498100 0.0 1033108
09:00−30зюз2596100 0.0 1033213
12:00−26з3683100 0.0 1032675
15:00−25зсз3576100 0.0 10301017
18:00−28з2291100 0.0 103022
21:00−31юз119692 0.0 103019
2 марта, вт
вт200:00−32ююз129563 0.0 102919
03:00−32ююз129672 0.0 102919
06:00−34ю129680 0.0 102919
09:00−32ююв119460 0.0 102850
12:00−25вюв127656 0.0 1025448
15:00−23вюв126865 0.0 1023924
18:00−27всв2291100 0.0 102328
21:00−31в129662 0.0 102419
3 марта, ср
ср300:00−33в11980 0.0 102319
03:00−34всв111002 0.0 102319
06:00−35всв1110051 0.0 102319
09:00−33св119759 0.0 102337
12:00−27ссв228265 0.0 1021308
15:00−25с237876 0.0 1020571
18:00−28ссв2295100 0.0 102219
21:00−32ссз11100100 0.0 102519
4 марта, чт
чт400:00−33з2210095 0.0 102620
03:00−35з239997 0.0 102766
06:00−35з31195100 0.0 1027419
09:00−34з41093100 0.1 1027465
12:00−32з41189100 0.1 1027604
15:00−29з61289100 0.3 1027739
18:00−29зсз61393100 0.2 1027850
21:00−30зсз51194100 0.4 1029911
5 марта, пт
пт500:00−29зсз41095100 0.2 1029930
03:00−29зсз51194100 0.4 1031792
06:00−30зсз51194100 0.1 1032693
09:00−31з51292100 0.3 1034599
12:00−29зсз41086100 0.1 1034580
15:00−25зсз51083100 0.1 1033704
18:00−26з41190100 0.0 1033628
21:00−28з3109895 0.0 1034280